QPF
0.02 0.03 0.03 0.03 0.04 0.05 0.06 0.05 0.04 0.03 0.04 0.04 0.03 0.02 0.03 0.04 0.05 0.03 0.05 0.07 0.07 0.06 0.05 0.04 0.04 0.05 0.05 0.04 0.03 0.03 0.03 0.03 0.04 0.04 0.05 0.05 0.05 0.04 0.03 0.03 0.02 0.02 0.03
0.01 0.02 0.02 0.03 0.03 0.03 0.05 0.05 0.04 0.03 0.05 0.04 0.03 0.03 0.03 0.03 0.05 0.05 0.04 0.05 0.07 0.07 0.06 0.06 0.06 0.05 0.04 0.03 0.02 0.03 0.03 0.04 0.04 0.04 0.04 0.03 0.03 0.02 0.03 0.03 0.02 0.03 0.03
0.01 0.01 0.02 0.02 0.03 0.02 0.02 0.03 0.03 0.04 0.05 0.04 0.03 0.03 0.03 0.03 0.04 0.04 0.05 0.05 0.04 0.04 0.04 0.06 0.06 0.06 0.04 0.03 0.04 0.04 0.03 0.03 0.02 0.03 0.04 0.03 0.03 0.03 0.03 0.04 0.02 0.03 0.04
0.00 0.01 0.01 0.01 0.01 0.02 0.02 0.02 0.01 0.03 0.03 0.03 0.04 0.03 0.02 0.03 0.03 0.03 0.03 0.03 0.02 0.03 0.03 0.04 0.03 0.05 0.06 0.05 0.04 0.04 0.03 0.02 0.03 0.04 0.04 0.05 0.05 0.06 0.06 0.05 0.03 0.03 0.04
0.00 0.01 0.02 0.01 0.01 0.01 0.01 0.00 0.01 0.01 0.02 0.03 0.04 0.04 0.03 0.03 0.04 0.04 0.04 0.02 0.02 0.03 0.04 0.03 0.02 0.03 0.05 0.05 0.04 0.03 0.03 0.03 0.03 0.04 0.05 0.07 0.07 0.07 0.06 0.06 0.04 0.03 0.03
0.00 0.01 0.02 0.03 0.02 0.02 0.01 0.01 0.01 0.01 0.01 0.02 0.02 0.04 0.05 0.04 0.05 0.05 0.05 0.04 0.03 0.03 0.04 0.03 0.03 0.02 0.02 0.02 0.02 0.02 0.02 0.03 0.04 0.05 0.06 0.07 0.08 0.08 0.07 0.06 0.05 0.04 0.03
0.00 0.00 0.01 0.02 0.02 0.02 0.02 0.02 0.01 0.02 0.02 0.01 0.02 0.03 0.03 0.05 0.05 0.06 0.08 0.08 0.06 0.05 0.04 0.04 0.03 0.02 0.02 0.03 0.03 0.03 0.03 0.03 0.05 0.06 0.06 0.05 0.05 0.06 0.06 0.04 0.04 0.03 0.03
0.00 0.00 0.01 0.03 0.02 0.02 0.02 0.01 0.02 0.02 0.02 0.02 0.03 0.05 0.04 0.04 0.03 0.02 0.04 0.06 0.07 0.07 0.06 0.06 0.06 0.04 0.03 0.03 0.03 0.03 0.03 0.04 0.05 0.06 0.05 0.04 0.04 0.04 0.05 0.05 0.04 0.03 0.03
0.00 0.00 0.00 0.01 0.02 0.02 0.02 0.02 0.03 0.03 0.03 0.02 0.02 0.04 0.06 0.04 0.02 0.02 0.02 0.01 0.03 0.05 0.06 0.06 0.06 0.05 0.03 0.02 0.01 0.01 0.01 0.02 0.03 0.03 0.03 0.03 0.03 0.03 0.05 0.09 0.08 0.05 0.04
0.00 0.00 0.00 0.00 0.01 0.01 0.02 0.03 0.03 0.03 0.04 0.04 0.03 0.02 0.02 0.01 0.01 0.02 0.04 0.02 0.02 0.02 0.04 0.03 0.03 0.04 0.03 0.02 0.01 0.01 0.01 0.01 0.01 0.01 0.03 0.03 0.03 0.05 0.11 0.22 0.17 0.07 0.03
0.01 0.01 0.01 0.01 0.01 0.01 0.01 0.02 0.02 0.02 0.03 0.04 0.02 0.01 0.01 0.01 0.01 0.02 0.04 0.03 0.01 0.01 0.01 0.01 0.01 0.02 0.01 0.02 0.01 0.01 0.00 0.00 0.00 0.01 0.02 0.03 0.04 0.07 0.16 0.27 0.25 0.10 0.04
0.01 0.01 0.01 0.01 0.00 0.00 0.01 0.01 0.01 0.01 0.02 0.02 0.01 0.01 0.01 0.02 0.02 0.01 0.01 0.02 0.02 0.01 0.01 0.01 0.01 0.01 0.01 0.01 0.01 0.01 0.01 0.00 0.00 0.00 0.01 0.02 0.03 0.06 0.14 0.20 0.19 0.11 0.06
0.02 0.01 0.01 0.00 0.01 0.01 0.00 0.00 0.01 0.01 0.01 0.01 0.00 0.01 0.01 0.01 0.01 0.02 0.01 0.01 0.02 0.01 0.00 0.00 0.00 0.00 0.00 0.00 0.00 0.00 0.00 0.01 0.01 0.01 0.01 0.02 0.03 0.05 0.08 0.08 0.06 0.06 0.07
0.02 0.02 0.02 0.01 0.01 0.01 0.00 0.01 0.01 0.01 0.00 0.00 0.00 0.00 0.01 0.01 0.01 0.01 0.01 0.01 0.02 0.02 0.01 0.01 0.00 0.00 0.00 0.00 0.00 0.00 0.00 0.00 0.02 0.02 0.02 0.03 0.04 0.04 0.05 0.05 0.03 0.02 0.03
0.01 0.01 0.01 0.01 0.01 0.00 0.00 0.01 0.01 0.00 0.00 0.00 0.00 0.00 0.00 0.01 0.01 0.00 0.01 0.02 0.02 0.02 0.02 0.01 0.00 0.00 0.00 0.00 0.00 0.00 0.00 0.01 0.01 0.02 0.02 0.02 0.02 0.02 0.02 0.02 0.02 0.02 0.02
0.01 0.01 0.01 0.01 0.01 0.01 0.01 0.01 0.00 0.00 0.01 0.01 0.00 0.00 0.00 0.00 0.01 0.00 0.01 0.01 0.01 0.01 0.02 0.01 0.00 0.00 0.00 0.00 0.00 0.00 0.00 0.01 0.00 0.00 0.01 0.01 0.01 0.01 0.01 0.01 0.01 0.01 0.01
0.01 0.01 0.00 0.00 0.01 0.01 0.01 0.00 0.00 0.01 0.01 0.01 0.00 0.00 0.00 0.01 0.01 0.00 0.01 0.01 0.01 0.01 0.01 0.01 0.00 0.00 0.00 0.00 0.00 0.00 0.00 0.00 0.00 0.00 0.01 0.01 0.00 0.00 0.00 0.00 0.00 0.01 0.01
0.01 0.01 0.00 0.00 0.00 0.00 0.01 0.00 0.00 0.00 0.01 0.01 0.00 0.01 0.01 0.01 0.01 0.01 0.01 0.01 0.02 0.01 0.01 0.01 0.01 0.00 0.00 0.00 0.00 0.00 0.00 0.00 0.00 0.00 0.00 0.01 0.01 0.00 0.00 0.00 0.00 0.00 0.01
0.01 0.01 0.01 0.01 0.01 0.00 0.00 0.00 0.00 0.00 0.00 0.01 0.01 0.01 0.01 0.01 0.02 0.01 0.01 0.01 0.01 0.01 0.01 0.01 0.00 0.00 0.00 0.00 0.00 0.00 0.00 0.00 0.00 0.00 0.00 0.01 0.01 0.01 0.01 0.00 0.00 0.00 0.01
0.01 0.01 0.01 0.01 0.01 0.01 0.00 0.00 0.00 0.01 0.00 0.00 0.00 0.00 0.00 0.01 0.01 0.01 0.01 0.01 0.01 0.01 0.00 0.01 0.00 0.00 0.00 0.00 0.00 0.00 0.00 0.00 0.00 0.00 0.00 0.01 0.01 0.01 0.01 0.01 0.01 0.01 0.01
0.01 0.00 0.01 0.01 0.01 0.01 0.01 0.01 0.01 0.01 0.01 0.00 0.00 0.00 0.01 0.01 0.01 0.00 0.00 0.01 0.01 0.01 0.01 0.01 0.01 0.01 0.00 0.00 0.00 0.00 0.00 0.00 0.00 0.00 0.00 0.01 0.01 0.01 0.01 0.01 0.01 0.01 0.01
0.02 0.01 0.01 0.01 0.01 0.01 0.02 0.02 0.01 0.02 0.01 0.01 0.00 0.00 0.01 0.01 0.01 0.01 0.00 0.01 0.01 0.01 0.01 0.01 0.01 0.01 0.01 0.00 0.00 0.00 0.00 0.00 0.00 0.00 0.00 0.00 0.01 0.01 0.01 0.00 0.00 0.00 0.00
0.02 0.01 0.01 0.00 0.00 0.01 0.01 0.01 0.01 0.01 0.01 0.00 0.00 0.00 0.00 0.01 0.01 0.00 0.01 0.01 0.01 0.01 0.01 0.01 0.01 0.02 0.02 0.01 0.01 0.00 0.00 0.00 0.00 0.00 0.00 0.00 0.00 0.01 0.01 0.00 0.00 0.00 0.00
0.01 0.01 0.00 0.00 0.00 0.01 0.01 0.00 0.00 0.01 0.01 0.01 0.00 0.00 0.00 0.00 0.01 0.02 0.01 0.01 0.01 0.01 0.02 0.02 0.02 0.02 0.02 0.01 0.01 0.01 0.01 0.01 0.00 0.00 0.01 0.01 0.01 0.01 0.01 0.00 0.00 0.00 0.00
0.01 0.01 0.01 0.01 0.00 0.01 0.01 0.00 0.00 0.01 0.02 0.01 0.00 0.00 0.01 0.01 0.02 0.02 0.01 0.01 0.00 0.01 0.01 0.03 0.02 0.02 0.02 0.01 0.01 0.01 0.01 0.00 0.00 0.00 0.00 0.00 0.00 0.00 0.00 0.01 0.00 0.00 0.00
0.01 0.01 0.01 0.01 0.01 0.01 0.01 0.01 0.00 0.01 0.02 0.01 0.01 0.00 0.00 0.01 0.01 0.01 0.01 0.01 0.01 0.01 0.01 0.02 0.01 0.01 0.01 0.01 0.01 0.01 0.01 0.01 0.01 0.00 0.00 0.00 0.00 0.00 0.00 0.00 0.01 0.00 0.00
MSLP
1014.40 1014.43 1014.44 1014.42 1014.38 1014.32 1014.26 1014.19 1014.12 1014.06 1014.02 1013.99 1013.99 1014.00 1014.01 1014.00 1013.92 1013.73 1013.41 1012.94 1012.33 1011.62 1010.87 1010.18 1009.60 1009.24 1009.12 1009.25 1009.59 1010.11 1010.70 1011.30 1011.84 1012.28 1012.62 1012.85 1013.02 1013.14 1013.24 1013.35 1013.44 1013.53 1013.58
1014.45 1014.44 1014.43 1014.42 1014.40 1014.38 1014.36 1014.35 1014.34 1014.34 1014.36 1014.42 1014.49 1014.57 1014.63 1014.63 1014.54 1014.29 1013.86 1013.24 1012.47 1011.60 1010.70 1009.88 1009.24 1008.85 1008.74 1008.92 1009.34 1009.93 1010.61 1011.29 1011.90 1012.39 1012.76 1013.02 1013.20 1013.33 1013.43 1013.53 1013.63 1013.70 1013.74
1014.57 1014.53 1014.50 1014.50 1014.51 1014.53 1014.56 1014.59 1014.64 1014.71 1014.80 1014.91 1015.06 1015.20 1015.31 1015.34 1015.23 1014.94 1014.43 1013.72 1012.83 1011.84 1010.84 1009.94 1009.25 1008.84 1008.74 1008.95 1009.42 1010.05 1010.77 1011.48 1012.11 1012.62 1013.00 1013.27 1013.46 1013.59 1013.70 1013.80 1013.89 1013.95 1013.98
1014.76 1014.69 1014.66 1014.66 1014.70 1014.76 1014.83 1014.91 1015.00 1015.12 1015.26 1015.43 1015.63 1015.83 1015.99 1016.06 1015.97 1015.68 1015.15 1014.39 1013.45 1012.40 1011.36 1010.42 1009.71 1009.29 1009.19 1009.40 1009.86 1010.49 1011.19 1011.88 1012.49 1012.97 1013.33 1013.58 1013.76 1013.89 1014.00 1014.11 1014.20 1014.27 1014.30
1015.00 1014.92 1014.88 1014.91 1014.97 1015.06 1015.16 1015.27 1015.39 1015.52 1015.70 1015.91 1016.15 1016.41 1016.63 1016.75 1016.72 1016.47 1015.98 1015.26 1014.34 1013.31 1012.27 1011.34 1010.63 1010.20 1010.09 1010.26 1010.67 1011.24 1011.87 1012.47 1013.00 1013.41 1013.72 1013.93 1014.09 1014.21 1014.33 1014.44 1014.54 1014.62 1014.66
1015.29 1015.19 1015.16 1015.20 1015.28 1015.39 1015.50 1015.62 1015.74 1015.88 1016.07 1016.30 1016.58 1016.89 1017.18 1017.39 1017.45 1017.30 1016.90 1016.27 1015.44 1014.49 1013.52 1012.64 1011.95 1011.52 1011.37 1011.48 1011.79 1012.24 1012.74 1013.22 1013.63 1013.94 1014.16 1014.32 1014.44 1014.55 1014.67 1014.79 1014.90 1014.99 1015.04
1015.58 1015.48 1015.46 1015.51 1015.60 1015.71 1015.82 1015.93 1016.04 1016.17 1016.34 1016.58 1016.89 1017.25 1017.61 1017.92 1018.10 1018.08 1017.84 1017.36 1016.68 1015.86 1015.00 1014.20 1013.55 1013.12 1012.92 1012.94 1013.13 1013.43 1013.77 1014.09 1014.35 1014.54 1014.66 1014.75 1014.83 1014.91 1015.03 1015.15 1015.28 1015.38 1015.44
1015.86 1015.76 1015.75 1015.80 1015.89 1015.99 1016.10 1016.18 1016.27 1016.37 1016.53 1016.76 1017.08 1017.48 1017.91 1018.32 1018.63 1018.77 1018.70 1018.40 1017.90 1017.25 1016.54 1015.84 1015.25 1014.82 1014.58 1014.51 1014.57 1014.71 1014.89 1015.04 1015.15 1015.21 1015.23 1015.24 1015.27 1015.34 1015.43 1015.56 1015.69 1015.80 1015.87
1016.10 1016.01 1016.00 1016.05 1016.14 1016.24 1016.32 1016.38 1016.43 1016.51 1016.63 1016.85 1017.18 1017.60 1018.08 1018.58 1019.00 1019.29 1019.39 1019.28 1018.97 1018.50 1017.94 1017.36 1016.85 1016.44 1016.17 1016.03 1015.98 1015.99 1016.02 1016.03 1016.01 1015.95 1015.89 1015.84 1015.82 1015.86 1015.94 1016.06 1016.18 1016.28 1016.35
1016.31 1016.22 1016.21 1016.27 1016.35 1016.44 1016.51 1016.55 1016.58 1016.62 1016.71 1016.90 1017.21 1017.63 1018.14 1018.68 1019.19 1019.59 1019.83 1019.88 1019.75 1019.45 1019.05 1018.61 1018.18 1017.83 1017.56 1017.38 1017.26 1017.18 1017.11 1017.02 1016.90 1016.77 1016.64 1016.55 1016.50 1016.51 1016.57 1016.66 1016.77 1016.86 1016.90
1016.49 1016.40 1016.40 1016.46 1016.55 1016.64 1016.70 1016.73 1016.73 1016.74 1016.81 1016.96 1017.23 1017.62 1018.11 1018.66 1019.20 1019.66 1020.00 1020.17 1020.17 1020.03 1019.78 1019.47 1019.15 1018.87 1018.64 1018.47 1018.34 1018.22 1018.10 1017.96 1017.80 1017.64 1017.49 1017.37 1017.30 1017.29 1017.33 1017.40 1017.48 1017.54 1017.56
1016.64 1016.57 1016.58 1016.65 1016.75 1016.85 1016.92 1016.95 1016.94 1016.93 1016.96 1017.07 1017.28 1017.61 1018.05 1018.55 1019.06 1019.53 1019.91 1020.15 1020.26 1020.24 1020.12 1019.94 1019.75 1019.56 1019.41 1019.29 1019.18 1019.08 1018.97 1018.83 1018.68 1018.53 1018.38 1018.27 1018.20 1018.18 1018.20 1018.25 1018.30 1018.33 1018.31
1016.77 1016.73 1016.76 1016.85 1016.98 1017.10 1017.18 1017.22 1017.22 1017.20 1017.20 1017.26 1017.40 1017.65 1017.99 1018.41 1018.86 1019.28 1019.65 1019.92 1020.09 1020.16 1020.16 1020.11 1020.03 1019.96 1019.90 1019.86 1019.82 1019.77 1019.71 1019.62 1019.51 1019.39 1019.28 1019.20 1019.15 1019.13 1019.15 1019.18 1019.20 1019.20 1019.15
1016.90 1016.89 1016.95 1017.08 1017.23 1017.38 1017.50 1017.56 1017.57 1017.55 1017.53 1017.55 1017.62 1017.78 1018.02 1018.33 1018.67 1019.02 1019.34 1019.61 1019.81 1019.95 1020.04 1020.10 1020.14 1020.17 1020.22 1020.26 1020.30 1020.32 1020.32 1020.30 1020.24 1020.19 1020.13 1020.09 1020.07 1020.08 1020.10 1020.12 1020.12 1020.09 1020.02
1017.03 1017.07 1017.17 1017.33 1017.51 1017.70 1017.85 1017.94 1017.98 1017.98 1017.95 1017.93 1017.95 1018.03 1018.16 1018.36 1018.60 1018.87 1019.13 1019.37 1019.59 1019.78 1019.94 1020.08 1020.22 1020.36 1020.49 1020.61 1020.71 1020.80 1020.85 1020.87 1020.88 1020.88 1020.87 1020.88 1020.91 1020.94 1020.98 1021.00 1021.00 1020.96 1020.86
1017.18 1017.26 1017.40 1017.59 1017.81 1018.03 1018.21 1018.35 1018.42 1018.45 1018.43 1018.40 1018.39 1018.40 1018.46 1018.57 1018.72 1018.91 1019.12 1019.34 1019.56 1019.79 1020.01 1020.22 1020.43 1020.64 1020.83 1020.99 1021.14 1021.25 1021.32 1021.38 1021.42 1021.45 1021.49 1021.55 1021.61 1021.68 1021.74 1021.78 1021.79 1021.74 1021.64
1017.37 1017.49 1017.66 1017.88 1018.12 1018.36 1018.58 1018.75 1018.87 1018.93 1018.95 1018.94 1018.92 1018.91 1018.93 1018.99 1019.08 1019.22 1019.40 1019.61 1019.84 1020.09 1020.35 1020.62 1020.87 1021.11 1021.32 1021.50 1021.63 1021.73 1021.80 1021.84 1021.88 1021.93 1021.99 1022.07 1022.17 1022.28 1022.37 1022.43 1022.45 1022.41 1022.30
1017.61 1017.77 1017.96 1018.20 1018.45 1018.71 1018.94 1019.15 1019.31 1019.41 1019.48 1019.51 1019.52 1019.53 1019.55 1019.59 1019.67 1019.79 1019.96 1020.17 1020.42 1020.70 1020.99 1021.28 1021.56 1021.80 1022.00 1022.15 1022.24 1022.29 1022.31 1022.31 1022.32 1022.35 1022.41 1022.51 1022.63 1022.75 1022.87 1022.96 1022.99 1022.95 1022.85
1017.93 1018.11 1018.32 1018.56 1018.81 1019.06 1019.31 1019.54 1019.73 1019.90 1020.02 1020.11 1020.17 1020.23 1020.28 1020.35 1020.44 1020.58 1020.76 1020.98 1021.25 1021.55 1021.86 1022.17 1022.44 1022.67 1022.84 1022.94 1022.97 1022.95 1022.90 1022.83 1022.79 1022.78 1022.82 1022.91 1023.03 1023.17 1023.30 1023.39 1023.43 1023.39 1023.28
1018.33 1018.54 1018.76 1018.98 1019.22 1019.46 1019.71 1019.95 1020.17 1020.38 1020.57 1020.73 1020.87 1020.98 1021.09 1021.20 1021.34 1021.50 1021.70 1021.95 1022.23 1022.55 1022.87 1023.18 1023.45 1023.65 1023.78 1023.82 1023.79 1023.70 1023.57 1023.44 1023.34 1023.28 1023.28 1023.35 1023.45 1023.58 1023.70 1023.79 1023.81 1023.76 1023.62
1018.81 1019.04 1019.26 1019.47 1019.68 1019.91 1020.14 1020.39 1020.64 1020.90 1021.14 1021.37 1021.58 1021.77 1021.94 1022.10 1022.27 1022.47 1022.69 1022.95 1023.25 1023.57 1023.90 1024.20 1024.46 1024.65 1024.75 1024.75 1024.67 1024.52 1024.34 1024.15 1023.99 1023.89 1023.85 1023.87 1023.95 1024.04 1024.13 1024.19 1024.17 1024.08 1023.91
1019.32 1019.58 1019.80 1020.00 1020.20 1020.41 1020.63 1020.88 1021.16 1021.45 1021.75 1022.04 1022.31 1022.57 1022.79 1023.00 1023.21 1023.42 1023.65 1023.92 1024.21 1024.53 1024.85 1025.15 1025.41 1025.58 1025.67 1025.66 1025.56 1025.39 1025.18 1024.96 1024.77 1024.62 1024.54 1024.52 1024.54 1024.58 1024.62 1024.61 1024.54 1024.39 1024.16
1019.81 1020.10 1020.34 1020.54 1020.73 1020.94 1021.16 1021.42 1021.71 1022.04 1022.38 1022.73 1023.06 1023.36 1023.63 1023.87 1024.10 1024.32 1024.55 1024.79 1025.07 1025.37 1025.68 1025.98 1026.23 1026.41 1026.51 1026.51 1026.43 1026.27 1026.06 1025.83 1025.62 1025.45 1025.33 1025.25 1025.22 1025.19 1025.15 1025.07 1024.92 1024.70 1024.40
1020.20 1020.53 1020.80 1021.03 1021.24 1021.45 1021.69 1021.96 1022.29 1022.65 1023.03 1023.42 1023.80 1024.14 1024.45 1024.71 1024.94 1025.15 1025.36 1025.58 1025.83 1026.10 1026.39 1026.67 1026.92 1027.12 1027.24 1027.28 1027.23 1027.11 1026.93 1026.72 1026.51 1026.32 1026.16 1026.03 1025.93 1025.82 1025.70 1025.53 1025.30 1025.00 1024.64
1020.42 1020.81 1021.14 1021.41 1021.66 1021.91 1022.18 1022.49 1022.85 1023.25 1023.67 1024.11 1024.52 1024.90 1025.23 1025.51 1025.74 1025.93 1026.11 1026.30 1026.51 1026.75 1027.01 1027.27 1027.53 1027.74 1027.89 1027.96 1027.96 1027.88 1027.74 1027.56 1027.36 1027.15 1026.96 1026.78 1026.60 1026.42 1026.21 1025.96 1025.65 1025.28 1024.87
1020.46 1020.91 1021.31 1021.65 1021.96 1022.26 1022.59 1022.95 1023.35 1023.80 1024.28 1024.75 1025.21 1025.63 1025.98 1026.27 1026.50 1026.69 1026.85 1027.01 1027.18 1027.38 1027.61 1027.85 1028.09 1028.30 1028.47 1028.57 1028.60 1028.56 1028.45 1028.29 1028.10 1027.88 1027.65 1027.42 1027.18 1026.92 1026.64 1026.31 1025.95 1025.53 1025.08
Thickness
5729 5728 5727 5725 5725 5725 5724 5723 5723 5722 5721 5721 5720 5719 5719 5718 5717 5716 5715 5716 5717 5718 5720 5721 5723 5724 5725 5725 5726 5727 5728 5728 5729 5729 5730 5731 5732 5733 5734 5735 5736 5736 5737
5728 5726 5724 5723 5722 5722 5721 5721 5719 5718 5716 5715 5715 5714 5714 5714 5713 5713 5712 5712 5713 5714 5715 5717 5719 5720 5721 5721 5721 5722 5722 5723 5724 5724 5726 5727 5728 5729 5730 5731 5731 5732 5732
5726 5724 5723 5721 5720 5720 5719 5717 5716 5715 5712 5711 5710 5710 5710 5710 5709 5710 5710 5709 5709 5710 5711 5712 5715 5716 5716 5716 5716 5716 5717 5717 5718 5719 5721 5722 5723 5724 5725 5725 5726 5727 5727
5724 5722 5720 5719 5718 5717 5716 5714 5712 5710 5708 5707 5705 5705 5705 5706 5706 5706 5707 5706 5706 5706 5707 5708 5709 5710 5711 5711 5711 5711 5711 5712 5712 5713 5715 5717 5718 5718 5719 5720 5720 5721 5722
5722 5720 5718 5717 5716 5715 5713 5712 5708 5707 5704 5702 5702 5702 5702 5702 5702 5703 5703 5704 5703 5703 5703 5703 5704 5704 5705 5705 5705 5705 5706 5706 5707 5708 5709 5711 5712 5712 5713 5714 5714 5715 5716
5720 5718 5717 5715 5714 5712 5710 5708 5706 5705 5702 5701 5701 5699 5699 5699 5699 5699 5699 5700 5700 5700 5699 5699 5699 5699 5699 5699 5700 5700 5701 5701 5702 5703 5703 5704 5705 5706 5707 5708 5708 5709 5710
5717 5716 5715 5714 5712 5709 5708 5706 5704 5702 5700 5700 5696 5693 5694 5696 5695 5695 5696 5696 5696 5696 5696 5696 5695 5694 5694 5694 5694 5695 5695 5695 5696 5697 5698 5699 5700 5701 5701 5702 5702 5703 5704
5715 5715 5713 5711 5710 5708 5706 5704 5702 5699 5698 5698 5694 5689 5684 5685 5690 5693 5693 5693 5692 5692 5692 5692 5691 5690 5689 5689 5688 5689 5689 5690 5691 5692 5692 5693 5694 5695 5695 5695 5696 5697 5699
5712 5712 5712 5710 5708 5707 5704 5702 5701 5698 5694 5696 5697 5691 5683 5678 5681 5686 5689 5689 5689 5688 5689 5689 5688 5687 5685 5684 5684 5684 5684 5684 5685 5686 5687 5688 5688 5688 5689 5689 5690 5692 5693
5710 5710 5710 5709 5707 5706 5703 5702 5700 5699 5696 5692 5694 5694 5692 5689 5681 5677 5681 5684 5686 5685 5685 5685 5684 5683 5682 5680 5679 5679 5679 5679 5680 5681 5681 5682 5682 5682 5683 5683 5684 5685 5686
5708 5707 5707 5707 5706 5704 5703 5701 5699 5698 5696 5693 5691 5690 5689 5688 5687 5680 5674 5677 5680 5682 5683 5682 5681 5680 5678 5677 5676 5675 5675 5674 5675 5675 5675 5676 5676 5676 5676 5677 5677 5677 5678
5705 5706 5705 5705 5704 5703 5702 5700 5698 5697 5695 5694 5692 5690 5687 5684 5682 5681 5675 5674 5674 5677 5679 5679 5678 5677 5675 5674 5672 5671 5671 5670 5670 5670 5670 5670 5670 5670 5669 5669 5669 5669 5669
5702 5703 5704 5703 5702 5702 5701 5699 5697 5696 5694 5692 5690 5689 5688 5686 5686 5683 5678 5674 5673 5674 5675 5675 5675 5674 5673 5671 5669 5668 5667 5666 5665 5665 5664 5664 5663 5663 5662 5662 5662 5661 5661
5703 5703 5702 5702 5701 5700 5699 5697 5696 5694 5694 5692 5690 5688 5687 5686 5685 5683 5679 5674 5669 5669 5670 5669 5671 5671 5670 5668 5667 5665 5663 5662 5661 5661 5660 5659 5658 5657 5656 5655 5654 5654 5653
5703 5702 5701 5700 5699 5698 5697 5695 5693 5692 5691 5689 5688 5687 5685 5685 5684 5683 5681 5678 5670 5663 5662 5666 5666 5668 5667 5665 5663 5661 5660 5658 5657 5656 5654 5653 5652 5650 5649 5648 5647 5646 5645
5703 5701 5700 5699 5698 5696 5695 5693 5691 5690 5688 5687 5686 5685 5683 5683 5682 5681 5680 5678 5675 5668 5661 5663 5664 5664 5664 5662 5660 5658 5656 5654 5652 5650 5649 5647 5646 5644 5643 5641 5640 5639 5637
5702 5700 5699 5698 5696 5695 5693 5691 5690 5688 5686 5685 5684 5682 5681 5681 5679 5677 5676 5674 5672 5668 5660 5660 5662 5661 5660 5658 5656 5654 5652 5650 5647 5645 5643 5642 5640 5638 5636 5634 5632 5631 5629
5701 5700 5699 5697 5695 5694 5692 5690 5688 5686 5684 5682 5681 5680 5678 5678 5675 5674 5672 5670 5668 5666 5661 5655 5655 5655 5654 5653 5651 5649 5648 5645 5643 5640 5638 5636 5634 5631 5629 5626 5624 5622 5620
5699 5698 5696 5694 5693 5692 5690 5689 5687 5685 5683 5681 5679 5677 5675 5673 5670 5669 5667 5666 5664 5663 5659 5653 5649 5649 5648 5648 5645 5644 5643 5640 5638 5635 5632 5629 5627 5624 5621 5618 5616 5614 5612
5696 5695 5694 5692 5690 5689 5687 5686 5684 5682 5679 5678 5676 5673 5671 5669 5666 5665 5663 5661 5660 5657 5654 5649 5645 5643 5642 5641 5639 5636 5634 5633 5631 5630 5626 5623 5620 5617 5614 5611 5608 5605 5603
5693 5692 5690 5689 5687 5686 5684 5682 5680 5678 5675 5673 5671 5669 5666 5665 5662 5660 5659 5656 5654 5651 5648 5644 5640 5637 5634 5632 5630 5630 5627 5626 5625 5623 5619 5616 5613 5609 5606 5602 5599 5596 5594
5689 5688 5686 5684 5682 5681 5680 5678 5676 5673 5671 5668 5666 5664 5662 5660 5658 5656 5654 5652 5649 5646 5642 5638 5634 5631 5628 5626 5625 5625 5621 5618 5615 5615 5612 5608 5605 5601 5597 5594 5591 5588 5585
5685 5682 5681 5679 5677 5676 5675 5674 5672 5669 5666 5665 5663 5660 5659 5657 5654 5651 5649 5646 5643 5641 5638 5633 5629 5625 5623 5622 5621 5618 5615 5612 5608 5607 5604 5599 5597 5592 5589 5586 5582 5579 5576
5680 5678 5676 5674 5672 5671 5670 5669 5667 5664 5661 5660 5658 5656 5654 5651 5650 5647 5644 5640 5636 5634 5632 5628 5625 5622 5620 5619 5616 5613 5610 5607 5604 5601 5597 5589 5587 5583 5581 5577 5574 5570 5567
5677 5675 5673 5670 5668 5666 5666 5664 5662 5658 5656 5654 5653 5651 5649 5647 5645 5643 5639 5634 5631 5628 5627 5624 5621 5618 5615 5613 5611 5607 5602 5598 5593 5591 5588 5582 5578 5574 5572 5568 5565 5561 5558
5673 5671 5669 5667 5665 5663 5662 5660 5657 5654 5651 5648 5647 5645 5644 5642 5640 5637 5633 5629 5625 5623 5621 5618 5615 5612 5609 5606 5603 5600 5595 5590 5585 5582 5580 5575 5570 5566 5561 5559 5556 5553 5549